Aérodrome :
LOGIN :

S'inscrire | Disclaimer

   EN    FR    IT 

 










Légende :    VFR   VFR Marginal   IFR   IFR Intensif   IFR Très Intensif
Visi : 
Plafond : 
>= 8 km
>= 3000ft
5 à 8 km
1000 à 3000 ft
1500m à 5 km
500 à 1000 ft
800 à 1500m
200 à 500 ft
< 800m
< 200 ft
Symboles :   Orages  Brouillard  Fortes neiges  Fortes précipitations  Vent > 20 kt
SIGMETs :   Divers  Orages  Givrage  Turbulence  Onde Orograph.  Cendres Volcan.






- Altitude de l'aérodrome : 49 ft
- Code IATA : SEN


EGMC - Southend

DERNIER METAR :
  • 091750Z 26003KT CAVOK 00/M03 Q1008

METARs EXPIRÉS :
  • 091720Z 29005KT CAVOK M00/M03 Q1007
  • 091650Z 28004KT CAVOK M00/M02 Q1007
  • 091620Z 29004KT CAVOK M00/M02 Q1007

TAF TAF EGMC
Valide du 09 à 18h jusqu'au 10 à 03h UTC


091701Z 0918/1003 30004KT 9999 FEW020
TEMPO 0918/1003 7000 BKN014
PROB30
TEMPO 0918/0924 3000 BR
PROB30 1000/1003 0300 FG VV///



MET'MAP, la Météo Aéronautique d'un coup d'oeil ! - Copyright ORBIFLY Décembre 2007 - Disclaimer

ORBIFLY MET'MAP TEAM :

Programmation & Développement : Alexandra Zaïnal
Sur une idée originale de : Baudouin d'Aumeries
Soutien technique & logistique : Manuel Goepfert
Assistance : Marc-Olivier Méhu




SOURCES & CREDITS :

   NOAA